Regional Weather Roundup
Issued by NWS

Home | Current Version | Previous Version | Text Only | Print | Product List | Glossary Off
Versions: 1 2 3 4 5 6 7 8 9 10 11 12 13 14 15 16 17 18 19 20 21 22 23 24 25 26 27 28 29 30 31 32 33 34 35 36 37 38 39 40 41 42 43 44 45 46 47 48 49 50

000
ASUS43 KLMK 012202
RWRKY
KENTUCKY REGIONAL WEATHER ROUNDUP
NATIONAL WEATHER SERVICE LOUISVILLE KY
600 PM EDT SUN MAY 01 2016

NOTE "FAIR" INDICATES FEW OR NO CLOUDS BELOW 12,000 FEET
WITH NO SIGNIFICANT WEATHER AND/OR OBSTRUCTIONS TO VISIBILITY.

KYZ001>023-026-027-061>063-070>075-012300-
WESTERN AND SOUTH CENTRAL KENTUCKY

CITY           SKY/WX    TMP DP  RH WIND       PRES   REMARKS
PADUCAH        MOSUNNY   79  64  60 W10       29.89S
HENDERSON      MOSUNNY   79  64  61 SW12      29.87S
OWENSBORO      PTSUNNY   81  65  58 SW15      29.89S
HOPKINSVILLE   MOSUNNY   76  60  57 SW8       29.92S
BOWLING GREEN  SUNNY     80  65  59 SW14      29.91S
GLASGOW        NOT AVBL
$$

KYZ024-025-028>034-038-045-046-053-012300-
NORTH CENTRAL KENTUCKY

CITY           SKY/WX    TMP DP  RH WIND       PRES   REMARKS
LOUISVILLE/SDF PTSUNNY   70  64  81 NW8       29.91S
LOUISVILLE/LOU CLOUDY    68  64  87 N7        29.92S
FORT KNOX      SUNNY     76  64  66 SW7       29.89F
$$

KYZ035>037-039>044-047>052-055>060-089>105-012300-
NORTHEAST KENTUCKY

CITY           SKY/WX    TMP DP  RH WIND       PRES   REMARKS
LEXINGTON      CLOUDY    66  59  78 N13       29.93F
COVINGTON      CLOUDY    75  58  55 S7        29.90R
FRANKFORT      CLOUDY    65  59  81 SE3       29.91F
$$

KYZ054-064>069-076>088-106>120-012300-
SOUTHEAST KENTUCKY

CITY           SKY/WX    TMP DP  RH WIND       PRES   REMARKS
JACKSON        MOSUNNY   79  63  57 CALM      29.91R
LONDON         PTSUNNY   80  60  50 SW8       29.92R
SOMERSET       NOT AVBL
MIDDLESBORO    CLOUDY    79  63  57 S9        29.92F
MONTICELLO     PTCLDY    80  64  58 W21       29.93F
$$





USA.gov is the U.S. government's official web portal to all federal, state and local government web resources and services.